Time,TemperatureF,DewpointF,PressureIn,WindDirection,WindDirectionDegrees,WindSpeedMPH,WindSpeedGustMPH,Humidity,HourlyPrecipIn,Conditions,Clouds,dailyrainin,SoftwareType,DateUTC
2013-04-17 00:00:00,66.0,62.7,29.41,NW,315,1.6,1.6,89,0.00,,OVC240,0.00,VWS V14.01,2013-04-17 05:00:00,
2013-04-17 00:08:00,66.0,62.7,29.41,SW,225,1.3,1.6,89,0.00,,OVC240,0.00,VWS V14.01,2013-04-17 05:08:00,
2013-04-17 00:10:00,66.0,62.7,29.41,SW,225,1.3,1.6,89,0.00,,OVC240,0.00,VWS V14.01,2013-04-17 05:10:00,
2013-04-17 00:18:00,66.0,63.0,29.41,SW,225,0.9,0.9,90,0.00,,OVC240,0.00,VWS V14.01,2013-04-17 05:18:00,
2013-04-17 00:20:00,66.0,63.0,29.41,SW,225,0.9,0.9,90,0.00,,OVC240,0.00,VWS V14.01,2013-04-17 05:20:00,
2013-04-17 00:28:00,65.7,62.7,29.41,SW,225,0.0,0.0,90,0.00,,OVC240,0.00,VWS V14.01,2013-04-17 05:28:00,
2013-04-17 00:30:00,65.7,62.7,29.41,SW,225,0.0,0.0,90,0.00,,OVC240,0.00,VWS V14.01,2013-04-17 05:30:00,
2013-04-17 00:38:00,65.1,62.4,29.41,SW,225,0.0,0.0,91,0.00,,OVC240,0.00,VWS V14.01,2013-04-17 05:38:00,
2013-04-17 00:40:00,65.1,62.4,29.41,SW,225,0.0,0.0,91,0.00,,OVC240,0.00,VWS V14.01,2013-04-17 05:40:00,
2013-04-17 00:48:00,64.6,61.9,29.41,SW,225,0.0,0.0,91,0.00,,OVC240,0.00,VWS V14.01,2013-04-17 05:48:00,
2013-04-17 00:50:00,64.6,61.9,29.41,SW,225,0.0,0.0,91,0.00,,OVC240,0.00,VWS V14.01,2013-04-17 05:50:00,
2013-04-17 00:58:00,64.2,61.8,29.41,SW,225,0.0,0.0,92,0.00,,OVC240,0.00,VWS V14.01,2013-04-17 05:58:00,
2013-04-17 01:00:00,64.2,61.8,29.41,SW,225,0.0,0.0,92,0.00,,OVC240,0.00,VWS V14.01,2013-04-17 06:00:00,
2013-04-17 01:08:00,63.9,61.8,29.41,SW,225,0.0,0.0,93,0.00,,OVC240,0.00,VWS V14.01,2013-04-17 06:08:00,
2013-04-17 01:10:00,63.9,61.8,29.41,SW,225,0.0,0.0,93,0.00,,OVC240,0.00,VWS V14.01,2013-04-17 06:10:00,
2013-04-17 01:18:00,63.7,61.6,29.41,SW,225,0.0,0.0,93,0.00,,OVC240,0.00,VWS V14.01,2013-04-17 06:18:00,
2013-04-17 01:20:00,63.7,61.6,29.41,SW,225,0.0,0.0,93,0.00,,OVC240,0.00,VWS V14.01,2013-04-17 06:20:00,
2013-04-17 01:28:00,64.0,62.3,29.38,SW,225,0.0,0.0,94,0.00,,OVC240,0.00,VWS V14.01,2013-04-17 06:28:00,
2013-04-17 01:30:00,64.0,62.3,29.38,SW,225,0.0,0.0,94,0.00,,OVC240,0.00,VWS V14.01,2013-04-17 06:30:00,
2013-04-17 01:38:00,64.4,62.3,29.38,SW,225,0.0,0.0,93,0.00,,OVC240,0.00,VWS V14.01,2013-04-17 06:38:00,
2013-04-17 01:40:00,64.4,62.3,29.38,SW,225,0.0,0.0,93,0.00,,OVC240,0.00,VWS V14.01,2013-04-17 06:40:00,
2013-04-17 01:48:00,64.2,62.5,29.38,SW,225,0.0,0.0,94,0.00,,OVC240,0.00,VWS V14.01,2013-04-17 06:48:00,
2013-04-17 01:50:00,64.2,62.5,29.38,SW,225,0.0,0.0,94,0.00,,OVC240,0.00,VWS V14.01,2013-04-17 06:50:00,
2013-04-17 01:58:00,64.0,62.3,29.38,SW,225,0.0,0.0,94,0.00,,OVC240,0.00,VWS V14.01,2013-04-17 06:58:00,
2013-04-17 02:00:00,64.0,62.3,29.38,SW,225,0.0,0.0,94,0.00,,OVC240,0.00,VWS V14.01,2013-04-17 07:00:00,
2013-04-17 02:08:00,63.7,61.9,29.38,SW,225,0.0,0.0,94,0.00,,OVC240,0.00,VWS V14.01,2013-04-17 07:08:00,
2013-04-17 02:10:00,63.7,61.9,29.38,SW,225,0.0,0.0,94,0.00,,OVC240,0.00,VWS V14.01,2013-04-17 07:10:00,
2013-04-17 02:18:00,63.9,62.1,29.38,SW,225,0.0,0.0,94,0.00,,OVC240,0.00,VWS V14.01,2013-04-17 07:18:00,
2013-04-17 02:20:00,63.9,62.1,29.38,SW,225,0.0,0.0,94,0.00,,OVC240,0.00,VWS V14.01,2013-04-17 07:20:00,
2013-04-17 02:28:00,64.0,62.3,29.38,SW,225,0.0,0.0,94,0.00,,OVC240,0.00,VWS V14.01,2013-04-17 07:28:00,
2013-04-17 02:30:00,64.0,62.3,29.38,SW,225,0.0,0.0,94,0.00,,OVC240,0.00,VWS V14.01,2013-04-17 07:30:00,
2013-04-17 02:38:00,63.7,61.9,29.38,SW,225,0.0,0.0,94,0.00,,OVC240,0.00,VWS V14.01,2013-04-17 07:38:00,
2013-04-17 02:40:00,63.7,61.9,29.38,SW,225,0.0,0.0,94,0.00,,OVC240,0.00,VWS V14.01,2013-04-17 07:40:00,
2013-04-17 02:48:00,63.5,62.0,29.41,SW,225,0.0,0.0,95,0.00,,OVC240,0.00,VWS V14.01,2013-04-17 07:48:00,
2013-04-17 02:50:00,63.5,62.0,29.41,SW,225,0.0,0.0,95,0.00,,OVC240,0.00,VWS V14.01,2013-04-17 07:50:00,
2013-04-17 02:58:00,63.5,62.0,29.38,SW,225,0.0,0.0,95,0.00,,OVC240,0.00,VWS V14.01,2013-04-17 07:58:00,
2013-04-17 03:00:00,63.5,62.0,29.38,SW,225,0.0,0.0,95,0.00,,OVC240,0.00,VWS V14.01,2013-04-17 08:00:00,
2013-04-17 03:09:00,63.1,61.7,29.38,SW,225,0.0,0.0,95,0.00,,OVC240,0.00,VWS V14.01,2013-04-17 08:09:00,
2013-04-17 03:10:00,63.1,61.7,29.38,SW,225,0.0,0.0,95,0.00,,OVC240,0.00,VWS V14.01,2013-04-17 08:10:00,
2013-04-17 03:20:00,63.0,61.5,29.41,SW,225,0.0,0.0,95,0.00,,OVC240,0.00,VWS V14.01,2013-04-17 08:20:00,
2013-04-17 03:28:00,62.6,61.2,29.41,SW,225,0.0,0.0,95,0.00,,OVC240,0.00,VWS V14.01,2013-04-17 08:28:00,
2013-04-17 03:30:00,62.6,61.2,29.41,SW,225,0.0,0.0,95,0.00,,OVC240,0.00,VWS V14.01,2013-04-17 08:30:00,
2013-04-17 03:39:00,62.6,61.5,29.41,SW,225,0.0,0.0,96,0.00,,OVC240,0.00,VWS V14.01,2013-04-17 08:39:00,
2013-04-17 03:40:00,62.6,61.5,29.41,SW,225,0.0,0.0,96,0.00,,OVC240,0.00,VWS V14.01,2013-04-17 08:40:00,
2013-04-17 03:48:00,62.6,61.5,29.41,SW,225,0.0,0.0,96,0.00,,OVC240,0.00,VWS V14.01,2013-04-17 08:48:00,
2013-04-17 03:50:00,62.6,61.5,29.41,SW,225,0.0,0.0,96,0.00,,OVC240,0.00,VWS V14.01,2013-04-17 08:50:00,
2013-04-17 03:58:00,62.1,60.9,29.41,SW,225,0.0,0.0,96,0.00,,OVC240,0.00,VWS V14.01,2013-04-17 08:58:00,
2013-04-17 04:00:00,62.1,60.9,29.41,SW,225,0.0,0.0,96,0.00,,OVC240,0.00,VWS V14.01,2013-04-17 09:00:00,
2013-04-17 04:08:00,61.9,60.7,29.41,SW,225,0.0,0.0,96,0.00,,OVC240,0.00,VWS V14.01,2013-04-17 09:08:00,
2013-04-17 04:10:00,61.9,60.7,29.41,SW,225,0.0,0.0,96,0.00,,OVC240,0.00,VWS V14.01,2013-04-17 09:10:00,
2013-04-17 04:18:00,61.9,61.0,29.38,SW,225,0.0,0.0,97,0.00,,OVC240,0.00,VWS V14.01,2013-04-17 09:18:00,
2013-04-17 04:20:00,61.9,61.0,29.38,SW,225,0.0,0.0,97,0.00,,OVC240,0.00,VWS V14.01,2013-04-17 09:20:00,
2013-04-17 04:28:00,61.5,60.7,29.41,SW,225,0.0,0.0,97,0.00,,OVC240,0.00,VWS V14.01,2013-04-17 09:28:00,
2013-04-17 04:30:00,61.5,60.7,29.41,SW,225,0.0,0.0,97,0.00,,OVC240,0.00,VWS V14.01,2013-04-17 09:30:00,
2013-04-17 04:38:00,61.7,60.8,29.41,SW,225,0.0,0.0,97,0.00,,OVC240,0.00,VWS V14.01,2013-04-17 09:38:00,
2013-04-17 04:40:00,61.7,60.8,29.41,SW,225,0.0,0.0,97,0.00,,OVC240,0.00,VWS V14.01,2013-04-17 09:40:00,
2013-04-17 04:48:00,61.9,61.0,29.41,SW,225,0.0,0.0,97,0.00,,OVC240,0.00,VWS V14.01,2013-04-17 09:48:00,
2013-04-17 04:50:00,61.9,61.0,29.41,SW,225,0.0,0.0,97,0.00,,OVC240,0.00,VWS V14.01,2013-04-17 09:50:00,
2013-04-17 04:58:00,62.1,61.2,29.41,SW,225,0.0,0.0,97,0.00,,OVC240,0.00,VWS V14.01,2013-04-17 09:58:00,
2013-04-17 05:00:00,62.1,61.2,29.41,SW,225,0.0,0.0,97,0.00,,OVC240,0.00,VWS V14.01,2013-04-17 10:00:00,
2013-04-17 05:08:00,61.9,61.0,29.41,SW,225,0.0,0.0,97,0.00,,OVC240,0.00,VWS V14.01,2013-04-17 10:08:00,
2013-04-17 05:10:00,61.9,61.0,29.41,SW,225,0.0,0.0,97,0.00,,OVC240,0.00,VWS V14.01,2013-04-17 10:10:00,
2013-04-17 05:18:00,61.7,60.8,29.41,SW,225,0.0,0.0,97,0.00,,OVC240,0.00,VWS V14.01,2013-04-17 10:18:00,
2013-04-17 05:20:00,61.7,60.8,29.41,SW,225,0.0,0.0,97,0.00,,OVC240,0.00,VWS V14.01,2013-04-17 10:20:00,
2013-04-17 05:28:00,61.7,60.8,29.41,SW,225,0.0,0.0,97,0.00,,OVC240,0.00,VWS V14.01,2013-04-17 10:28:00,
2013-04-17 05:30:00,61.7,60.8,29.41,SW,225,0.0,0.0,97,0.00,,OVC240,0.00,VWS V14.01,2013-04-17 10:30:00,
2013-04-17 05:38:00,61.7,60.8,29.41,SW,225,0.0,0.0,97,0.00,,OVC240,0.00,VWS V14.01,2013-04-17 10:38:00,
2013-04-17 05:40:00,61.7,60.8,29.41,SW,225,0.0,0.0,97,0.00,,OVC240,0.00,VWS V14.01,2013-04-17 10:40:00,
2013-04-17 05:48:00,61.5,60.7,29.41,SW,225,0.0,0.0,97,0.00,,OVC240,0.00,VWS V14.01,2013-04-17 10:48:00,
2013-04-17 05:50:00,61.5,60.7,29.41,SW,225,0.0,0.0,97,0.00,,OVC240,0.00,VWS V14.01,2013-04-17 10:50:00,
2013-04-17 05:58:00,61.7,60.8,29.41,SW,225,0.0,0.0,97,0.00,,OVC240,0.00,VWS V14.01,2013-04-17 10:58:00,
2013-04-17 06:00:00,61.7,60.8,29.41,SW,225,0.0,0.0,97,0.00,,OVC240,0.00,VWS V14.01,2013-04-17 11:00:00,
2013-04-17 06:08:00,62.1,61.5,29.41,SW,225,0.0,0.0,98,0.00,,OVC240,0.00,VWS V14.01,2013-04-17 11:08:00,
2013-04-17 06:10:00,62.1,61.5,29.41,SW,225,0.0,0.0,98,0.00,,OVC240,0.00,VWS V14.01,2013-04-17 11:10:00,
2013-04-17 06:18:00,62.1,61.2,29.44,SW,225,0.0,0.0,97,0.00,,OVC240,0.00,VWS V14.01,2013-04-17 11:18:00,
2013-04-17 06:20:00,62.1,61.2,29.44,SW,225,0.0,0.0,97,0.00,,OVC240,0.00,VWS V14.01,2013-04-17 11:20:00,
2013-04-17 06:28:00,62.4,61.8,29.44,SW,225,0.0,0.0,98,0.00,,OVC240,0.00,VWS V14.01,2013-04-17 11:28:00,
2013-04-17 06:30:00,62.4,61.8,29.44,SW,225,0.0,0.0,98,0.00,,OVC240,0.00,VWS V14.01,2013-04-17 11:30:00,
2013-04-17 06:38:00,62.2,61.4,29.44,SW,225,0.0,0.0,97,0.00,,OVC240,0.00,VWS V14.01,2013-04-17 11:38:00,
2013-04-17 06:40:00,62.2,61.4,29.44,SW,225,0.0,0.0,97,0.00,,OVC240,0.00,VWS V14.01,2013-04-17 11:40:00,
2013-04-17 06:48:00,62.1,61.2,29.44,SW,225,0.0,0.0,97,0.00,,OVC240,0.00,VWS V14.01,2013-04-17 11:48:00,
2013-04-17 06:50:00,62.1,61.2,29.44,SW,225,0.0,0.0,97,0.00,,OVC240,0.00,VWS V14.01,2013-04-17 11:50:00,
2013-04-17 06:58:00,62.2,61.7,29.41,SW,225,0.0,0.0,98,0.00,,OVC240,0.00,VWS V14.01,2013-04-17 11:58:00,
2013-04-17 07:00:00,62.2,61.7,29.41,SW,225,0.0,0.0,98,0.00,,OVC240,0.00,VWS V14.01,2013-04-17 12:00:00,
2013-04-17 07:08:00,63.1,62.3,29.41,SW,225,0.0,0.0,97,0.00,,OVC240,0.00,VWS V14.01,2013-04-17 12:08:00,
2013-04-17 07:10:00,63.1,62.3,29.41,SW,225,0.0,0.0,97,0.00,,OVC240,0.00,VWS V14.01,2013-04-17 12:10:00,
2013-04-17 07:20:00,63.9,63.0,29.44,SW,225,0.0,0.0,97,0.00,,OVC240,0.00,VWS V14.01,2013-04-17 12:20:00,
2013-04-17 07:22:00,63.9,63.0,29.44,SW,225,0.0,0.0,97,0.00,,OVC240,0.00,VWS V14.01,2013-04-17 12:22:00,
2013-04-17 07:28:00,64.4,63.5,29.41,SW,225,2.0,2.0,97,0.00,,OVC240,0.00,VWS V14.01,2013-04-17 12:28:00,
2013-04-17 07:30:00,64.4,63.5,29.41,SW,225,2.0,2.0,97,0.00,,OVC240,0.00,VWS V14.01,2013-04-17 12:30:00,
2013-04-17 07:38:00,66.2,65.3,29.41,SW,225,0.0,0.0,97,0.00,,OVC240,0.00,VWS V14.01,2013-04-17 12:38:00,
2013-04-17 07:40:00,66.2,65.3,29.41,SW,225,0.0,0.0,97,0.00,,OVC240,0.00,VWS V14.01,2013-04-17 12:40:00,
2013-04-17 07:48:00,67.6,66.5,29.44,SW,225,0.0,0.0,96,0.00,,OVC240,0.00,VWS V14.01,2013-04-17 12:48:00,
2013-04-17 07:50:00,67.6,66.5,29.44,SW,225,0.0,0.0,96,0.00,,OVC240,0.00,VWS V14.01,2013-04-17 12:50:00,
2013-04-17 07:58:00,68.5,67.1,29.44,SW,225,0.0,0.0,95,0.00,,OVC240,0.00,VWS V14.01,2013-04-17 12:58:00,
2013-04-17 08:00:00,68.5,67.1,29.44,SW,225,0.0,0.0,95,0.00,,OVC240,0.00,VWS V14.01,2013-04-17 13:00:00,
2013-04-17 08:08:00,70.2,68.1,29.44,SW,225,0.0,0.0,93,0.00,,OVC240,0.00,VWS V14.01,2013-04-17 13:08:00,
2013-04-17 08:10:00,70.2,68.1,29.44,SW,225,0.0,0.0,93,0.00,,OVC240,0.00,VWS V14.01,2013-04-17 13:10:00,
2013-04-17 08:19:00,72.3,69.2,29.41,South,180,2.0,2.0,90,0.00,,OVC240,0.00,VWS V14.01,2013-04-17 13:19:00,
2013-04-17 08:20:00,72.3,69.2,29.41,South,180,2.0,2.0,90,0.00,,OVC240,0.00,VWS V14.01,2013-04-17 13:20:00,
2013-04-17 08:28:00,74.3,69.5,29.44,South,180,1.3,2.0,85,0.00,,OVC240,0.00,VWS V14.01,2013-04-17 13:28:00,
2013-04-17 08:30:00,74.3,69.5,29.44,South,180,1.3,2.0,85,0.00,,OVC240,0.00,VWS V14.01,2013-04-17 13:30:00,
2013-04-17 08:38:00,76.1,69.1,29.44,SE,135,3.1,3.1,79,0.00,,OVC240,0.00,VWS V14.01,2013-04-17 13:38:00,
2013-04-17 08:40:00,76.1,69.1,29.44,SE,135,3.1,3.1,79,0.00,,OVC240,0.00,VWS V14.01,2013-04-17 13:40:00,
2013-04-17 08:48:00,77.5,69.0,29.41,SE,135,1.1,1.1,75,0.00,,OVC240,0.00,VWS V14.01,2013-04-17 13:48:00,
2013-04-17 08:50:00,77.5,69.0,29.41,SE,135,1.1,1.1,75,0.00,,OVC240,0.00,VWS V14.01,2013-04-17 13:50:00,
2013-04-17 08:58:00,78.4,68.3,29.47,SE,135,2.7,2.7,71,0.00,,OVC240,0.00,VWS V14.01,2013-04-17 13:58:00,
2013-04-17 09:00:00,78.4,68.3,29.47,SE,135,2.7,2.7,71,0.00,,OVC240,0.00,VWS V14.01,2013-04-17 14:00:00,
2013-04-17 09:08:00,79.7,67.8,29.47,SE,135,3.4,5.8,67,0.00,,OVC240,0.00,VWS V14.01,2013-04-17 14:08:00,
2013-04-17 09:10:00,79.7,67.8,29.47,SE,135,3.4,5.8,67,0.00,,OVC240,0.00,VWS V14.01,2013-04-17 14:10:00,
2013-04-17 09:18:00,79.7,66.9,29.44,West,270,4.7,4.7,65,0.00,,OVC240,0.00,VWS V14.01,2013-04-17 14:18:00,
2013-04-17 09:20:00,79.7,66.9,29.44,West,270,4.7,4.7,65,0.00,,OVC240,0.00,VWS V14.01,2013-04-17 14:20:00,
2013-04-17 09:28:00,80.1,66.3,29.44,SE,135,6.5,8.1,63,0.00,,OVC240,0.00,VWS V14.01,2013-04-17 14:28:00,
2013-04-17 09:30:00,80.1,66.3,29.44,SE,135,6.5,8.1,63,0.00,,OVC240,0.00,VWS V14.01,2013-04-17 14:30:00,
2013-04-17 09:38:00,81.1,66.9,29.44,SSE,158,0.9,2.0,62,0.00,,OVC240,0.00,VWS V14.01,2013-04-17 14:38:00,
2013-04-17 09:40:00,81.1,66.9,29.44,SSE,158,0.9,2.0,62,0.00,,OVC240,0.00,VWS V14.01,2013-04-17 14:40:00,
2013-04-17 09:48:00,82.6,66.8,29.44,SE,135,4.0,4.3,59,0.00,,OVC240,0.00,VWS V14.01,2013-04-17 14:48:00,
2013-04-17 09:50:00,82.6,66.8,29.44,SE,135,4.0,4.3,59,0.00,,OVC240,0.00,VWS V14.01,2013-04-17 14:50:00,
2013-04-17 09:58:00,81.5,65.3,29.44,SE,135,5.6,5.6,58,0.00,,OVC240,0.00,VWS V14.01,2013-04-17 14:58:00,
2013-04-17 10:00:00,81.5,65.3,29.44,SE,135,5.6,5.6,58,0.00,,OVC240,0.00,VWS V14.01,2013-04-17 15:00:00,
2013-04-17 10:08:00,81.7,66.0,29.44,East,90,5.8,7.6,59,0.00,,OVC240,0.00,VWS V14.01,2013-04-17 15:08:00,
2013-04-17 10:10:00,81.7,66.0,29.44,East,90,5.8,7.6,59,0.00,,OVC240,0.00,VWS V14.01,2013-04-17 15:10:00,
2013-04-17 10:18:00,83.7,66.8,29.44,SE,135,7.4,7.4,57,0.00,,OVC240,0.00,VWS V14.01,2013-04-17 15:18:00,
2013-04-17 10:20:00,83.7,66.8,29.44,SE,135,7.4,7.4,57,0.00,,OVC240,0.00,VWS V14.01,2013-04-17 15:20:00,
2013-04-17 10:28:00,84.6,65.6,29.41,SE,135,6.3,7.4,53,0.00,,OVC240,0.00,VWS V14.01,2013-04-17 15:28:00,
2013-04-17 10:30:00,84.6,65.6,29.41,SE,135,6.3,7.4,53,0.00,,OVC240,0.00,VWS V14.01,2013-04-17 15:30:00,
2013-04-17 10:38:00,84.0,66.7,29.41,South,180,3.6,4.9,56,0.00,,OVC240,0.00,VWS V14.01,2013-04-17 15:38:00,
2013-04-17 10:40:00,84.0,66.7,29.41,South,180,3.6,4.9,56,0.00,,OVC240,0.00,VWS V14.01,2013-04-17 15:40:00,
2013-04-17 10:48:00,86.2,67.6,29.44,SW,225,5.6,5.6,54,0.00,,OVC240,0.00,VWS V14.01,2013-04-17 15:48:00,
2013-04-17 10:50:00,86.2,67.6,29.44,SW,225,5.6,5.6,54,0.00,,OVC240,0.00,VWS V14.01,2013-04-17 15:50:00,
2013-04-17 10:58:00,87.3,66.4,29.44,SE,135,2.5,2.5,50,0.00,,OVC240,0.00,VWS V14.01,2013-04-17 15:58:00,
2013-04-17 11:00:00,87.3,66.4,29.44,SE,135,2.5,2.5,50,0.00,,OVC240,0.00,VWS V14.01,2013-04-17 16:00:00,
2013-04-17 11:08:00,88.3,66.2,29.44,SE,135,4.7,4.7,48,0.00,,OVC240,0.00,VWS V14.01,2013-04-17 16:08:00,
2013-04-17 11:10:00,88.3,66.2,29.44,SE,135,4.7,4.7,48,0.00,,OVC240,0.00,VWS V14.01,2013-04-17 16:10:00,
2013-04-17 11:18:00,87.1,66.8,29.41,SE,135,3.8,3.8,51,0.00,,OVC240,0.00,VWS V14.01,2013-04-17 16:18:00,
2013-04-17 11:20:00,87.1,66.8,29.41,SE,135,3.8,3.8,51,0.00,,OVC240,0.00,VWS V14.01,2013-04-17 16:20:00,
2013-04-17 11:28:00,88.2,65.4,29.41,SE,135,3.1,3.1,47,0.00,,OVC240,0.00,VWS V14.01,2013-04-17 16:28:00,
2013-04-17 11:30:00,88.2,65.4,29.41,SE,135,3.1,3.1,47,0.00,,OVC240,0.00,VWS V14.01,2013-04-17 16:30:00,
2013-04-17 11:38:00,88.9,67.3,29.41,NE,45,2.7,2.7,49,0.00,,OVC240,0.00,VWS V14.01,2013-04-17 16:38:00,
2013-04-17 11:40:00,88.9,67.3,29.41,NE,45,2.7,2.7,49,0.00,,OVC240,0.00,VWS V14.01,2013-04-17 16:40:00,
2013-04-17 11:48:00,90.1,66.6,29.44,NW,315,2.0,2.9,46,0.00,,OVC240,0.00,VWS V14.01,2013-04-17 16:48:00,
2013-04-17 11:50:00,90.1,66.6,29.44,NW,315,2.0,2.9,46,0.00,,OVC240,0.00,VWS V14.01,2013-04-17 16:50:00,
2013-04-17 11:58:00,89.6,66.7,29.41,SE,135,2.7,2.9,47,0.00,,OVC240,0.00,VWS V14.01,2013-04-17 16:58:00,
2013-04-17 12:00:00,89.6,66.7,29.41,SE,135,2.7,2.9,47,0.00,,OVC240,0.00,VWS V14.01,2013-04-17 17:00:00,
2013-04-17 12:08:00,90.0,65.8,29.41,NW,315,6.0,6.0,45,0.00,,OVC240,0.00,VWS V14.01,2013-04-17 17:08:00,
2013-04-17 12:10:00,90.0,65.8,29.41,NW,315,6.0,6.0,45,0.00,,OVC240,0.00,VWS V14.01,2013-04-17 17:10:00,
2013-04-17 12:18:00,90.1,67.8,29.41,SE,135,1.6,3.8,48,0.00,,OVC240,0.00,VWS V14.01,2013-04-17 17:18:00,
2013-04-17 12:20:00,90.1,67.8,29.41,SE,135,1.6,3.8,48,0.00,,OVC240,0.00,VWS V14.01,2013-04-17 17:20:00,
2013-04-17 12:28:00,90.7,66.4,29.38,West,270,1.6,6.0,45,0.00,,OVC240,0.00,VWS V14.01,2013-04-17 17:28:00,
2013-04-17 12:30:00,90.7,66.4,29.38,West,270,1.6,6.0,45,0.00,,OVC240,0.00,VWS V14.01,2013-04-17 17:30:00,
2013-04-17 12:38:00,90.7,66.4,29.38,ESE,112,2.9,2.9,45,0.00,,OVC240,0.00,VWS V14.01,2013-04-17 17:38:00,
2013-04-17 12:40:00,90.7,66.4,29.38,ESE,112,2.9,2.9,45,0.00,,OVC240,0.00,VWS V14.01,2013-04-17 17:40:00,
2013-04-17 12:48:00,91.8,66.8,29.41,NW,315,3.8,3.8,44,0.00,,OVC240,0.00,VWS V14.01,2013-04-17 17:48:00,
2013-04-17 12:50:00,91.8,66.8,29.41,NW,315,3.8,3.8,44,0.00,,OVC240,0.00,VWS V14.01,2013-04-17 17:50:00,
2013-04-17 12:58:00,92.5,66.1,29.38,SE,135,6.0,6.0,42,0.00,,OVC240,0.00,VWS V14.01,2013-04-17 17:58:00,
2013-04-17 13:00:00,92.5,66.1,29.38,SE,135,6.0,6.0,42,0.00,,OVC240,0.00,VWS V14.01,2013-04-17 18:00:00,
2013-04-17 13:08:00,91.9,66.3,29.38,SE,135,3.1,3.4,43,0.00,,OVC240,0.00,VWS V14.01,2013-04-17 18:08:00,
2013-04-17 13:10:00,91.9,66.3,29.38,SE,135,3.1,3.4,43,0.00,,OVC240,0.00,VWS V14.01,2013-04-17 18:10:00,
2013-04-17 13:18:00,91.4,66.4,29.38,SE,135,3.6,3.6,44,0.00,,OVC240,0.00,VWS V14.01,2013-04-17 18:18:00,
2013-04-17 13:20:00,91.4,66.4,29.38,SE,135,3.6,3.6,44,0.00,,OVC240,0.00,VWS V14.01,2013-04-17 18:20:00,
2013-04-17 13:28:00,92.5,66.8,29.38,SSE,158,1.6,6.0,43,0.00,,OVC240,0.00,VWS V14.01,2013-04-17 18:28:00,
2013-04-17 13:30:00,92.5,66.8,29.38,SSE,158,1.6,6.0,43,0.00,,OVC240,0.00,VWS V14.01,2013-04-17 18:30:00,
2013-04-17 13:38:00,91.6,64.6,29.38,SE,135,6.3,6.3,41,0.00,,OVC240,0.00,VWS V14.01,2013-04-17 18:38:00,
2013-04-17 13:40:00,91.6,64.6,29.38,SE,135,6.3,6.3,41,0.00,,OVC240,0.00,VWS V14.01,2013-04-17 18:40:00,
2013-04-17 13:48:00,88.7,62.7,29.38,SW,225,2.2,2.7,42,0.00,,OVC240,0.00,VWS V14.01,2013-04-17 18:48:00,
2013-04-17 13:50:00,88.7,62.7,29.38,SW,225,2.2,2.7,42,0.00,,OVC240,0.00,VWS V14.01,2013-04-17 18:50:00,
2013-04-17 13:58:00,86.5,63.3,29.35,SE,135,2.9,2.9,46,0.00,,OVC240,0.00,VWS V14.01,2013-04-17 18:58:00,
2013-04-17 14:00:00,86.5,63.3,29.35,SE,135,2.9,2.9,46,0.00,,OVC240,0.00,VWS V14.01,2013-04-17 19:00:00,
2013-04-17 14:08:00,90.1,65.9,29.35,West,270,4.7,5.4,45,0.00,,OVC240,0.00,VWS V14.01,2013-04-17 19:08:00,
2013-04-17 14:10:00,90.1,65.9,29.35,West,270,4.7,5.4,45,0.00,,OVC240,0.00,VWS V14.01,2013-04-17 19:10:00,
2013-04-17 14:18:00,88.0,63.4,29.35,East,90,5.8,5.8,44,0.00,,OVC240,0.00,VWS V14.01,2013-04-17 19:18:00,
2013-04-17 14:20:00,88.0,63.4,29.35,East,90,5.8,5.8,44,0.00,,OVC240,0.00,VWS V14.01,2013-04-17 19:20:00,
2013-04-17 14:28:00,85.8,62.7,29.35,West,270,2.5,4.7,46,0.00,,OVC240,0.00,VWS V14.01,2013-04-17 19:28:00,
2013-04-17 14:30:00,85.8,62.7,29.35,West,270,2.5,4.7,46,0.00,,OVC240,0.00,VWS V14.01,2013-04-17 19:30:00,
2013-04-17 14:38:00,84.6,63.3,29.35,SE,135,0.9,1.1,49,0.00,,OVC240,0.00,VWS V14.01,2013-04-17 19:38:00,
2013-04-17 14:40:00,84.6,63.3,29.35,SE,135,0.9,1.1,49,0.00,,OVC240,0.00,VWS V14.01,2013-04-17 19:40:00,
2013-04-17 14:48:00,84.4,64.3,29.35,SSE,158,1.6,2.0,51,0.00,,OVC240,0.00,VWS V14.01,2013-04-17 19:48:00,
2013-04-17 14:50:00,84.4,64.3,29.35,SSE,158,1.6,2.0,51,0.00,,OVC240,0.00,VWS V14.01,2013-04-17 19:50:00,
2013-04-17 14:58:00,84.4,64.8,29.32,ESE,112,0.0,0.0,52,0.00,,OVC240,0.00,VWS V14.01,2013-04-17 19:58:00,
2013-04-17 15:00:00,84.4,64.8,29.32,ESE,112,0.0,0.0,52,0.00,,OVC240,0.00,VWS V14.01,2013-04-17 20:00:00,
2013-04-17 15:08:00,78.8,58.6,29.32,NE,45,7.6,7.6,50,0.00,,OVC240,0.00,VWS V14.01,2013-04-17 20:08:00,
2013-04-17 15:10:00,78.8,58.6,29.32,NE,45,7.6,7.6,50,0.00,,OVC240,0.00,VWS V14.01,2013-04-17 20:10:00,
2013-04-17 15:18:00,73.9,57.3,29.35,NE,45,6.5,7.6,56,0.00,,OVC240,0.00,VWS V14.01,2013-04-17 20:18:00,
2013-04-17 15:20:00,73.9,57.3,29.35,NE,45,6.5,7.6,56,0.00,,OVC240,0.00,VWS V14.01,2013-04-17 20:20:00,
2013-04-17 15:28:00,70.0,59.3,29.38,North,0,6.3,6.3,69,0.00,,OVC240,0.00,VWS V14.01,2013-04-17 20:28:00,
2013-04-17 15:30:00,70.0,59.3,29.38,North,0,6.3,6.3,69,0.00,,OVC240,0.00,VWS V14.01,2013-04-17 20:30:00,
2013-04-17 15:38:00,67.6,61.3,29.38,NE,45,7.4,7.4,80,0.00,,OVC240,0.00,VWS V14.01,2013-04-17 20:38:00,
2013-04-17 15:40:00,67.6,61.3,29.38,NE,45,7.4,7.4,80,0.00,,OVC240,0.00,VWS V14.01,2013-04-17 20:40:00,
2013-04-17 15:45:00,66.6,61.6,29.38,NNE,22,5.6,5.6,84,0.00,,OVC240,0.00,VWS V14.01,2013-04-17 20:45:00,
2013-04-17 15:48:00,66.6,61.6,29.38,North,0,7.8,7.8,84,0.00,,OVC240,0.00,VWS V14.01,2013-04-17 20:48:00,
2013-04-17 15:50:00,66.6,61.6,29.38,North,0,7.8,7.8,84,0.00,,OVC240,0.00,VWS V14.01,2013-04-17 20:50:00,
2013-04-17 15:58:00,65.8,62.8,29.35,North,0,6.3,6.3,90,0.00,,OVC240,0.00,VWS V14.01,2013-04-17 20:58:00,
2013-04-17 16:00:00,65.8,62.8,29.35,North,0,6.3,6.3,90,0.00,,OVC240,0.00,VWS V14.01,2013-04-17 21:00:00,
2013-04-17 16:08:00,65.3,62.9,29.35,NE,45,2.7,2.9,92,0.00,,OVC240,0.00,VWS V14.01,2013-04-17 21:08:00,
2013-04-17 16:10:00,65.3,62.9,29.35,NE,45,2.7,2.9,92,0.00,,OVC240,0.00,VWS V14.01,2013-04-17 21:10:00,
2013-04-17 16:18:00,65.1,62.7,29.38,SW,225,3.4,3.4,92,0.00,,OVC240,0.00,VWS V14.01,2013-04-17 21:18:00,
2013-04-17 16:20:00,65.1,62.7,29.38,SW,225,3.4,3.4,92,0.00,,OVC240,0.00,VWS V14.01,2013-04-17 21:20:00,
2013-04-17 16:25:00,65.1,62.7,29.38,North,0,3.8,3.8,92,0.00,,OVC240,0.00,VWS V14.01,2013-04-17 21:25:00,
2013-04-17 16:45:00,65.1,62.7,29.38,North,0,2.5,3.8,92,0.04,,OVC240,0.04,VWS V14.01,2013-04-17 21:45:00,
2013-04-17 16:55:00,64.8,63.0,29.38,NE,45,3.1,3.8,94,0.29,,OVC240,0.29,VWS V14.01,2013-04-17 21:55:00,
2013-04-17 17:05:00,65.3,63.8,29.35,North,0,1.3,3.8,95,0.37,,OVC240,0.37,VWS V14.01,2013-04-17 22:05:00,
2013-04-17 17:15:00,65.5,64.0,29.35,NNE,22,0.9,3.8,95,0.37,,OVC240,0.37,VWS V14.01,2013-04-17 22:15:00,
2013-04-17 17:25:00,65.5,63.7,29.35,NE,45,2.9,3.1,94,0.37,,OVC240,0.37,VWS V14.01,2013-04-17 22:25:00,
2013-04-17 17:35:00,65.7,64.2,29.35,North,0,2.5,3.1,95,0.37,,OVC240,0.37,VWS V14.01,2013-04-17 22:35:00,
2013-04-17 17:45:00,65.8,63.8,29.35,North,0,1.1,2.9,93,0.33,,OVC240,0.37,VWS V14.01,2013-04-17 22:45:00,
2013-04-17 17:55:00,65.8,64.1,29.35,SE,135,1.1,2.9,94,0.33,,OVC240,0.37,VWS V14.01,2013-04-17 22:55:00,
2013-04-17 18:15:00,65.7,64.2,29.38,North,0,0.9,2.9,95,0.08,,OVC240,0.37,VWS V14.01,2013-04-17 23:15:00,
2013-04-17 18:25:00,65.3,63.5,29.38,NW,315,1.6,2.5,94,0.00,,OVC240,0.37,VWS V14.01,2013-04-17 23:25:00,
2013-04-17 18:35:00,65.1,64.0,29.38,WNW,292,2.2,2.2,96,0.00,,OVC240,0.37,VWS V14.01,2013-04-17 23:35:00,
2013-04-17 18:45:00,64.9,63.8,29.38,West,270,2.0,2.2,96,0.00,,OVC240,0.37,VWS V14.01,2013-04-17 23:45:00,
2013-04-17 18:55:00,64.4,63.2,29.38,NNW,338,2.0,2.2,96,0.33,,OVC240,0.70,VWS V14.01,2013-04-17 23:55:00,
2013-04-17 19:04:00,64.4,63.2,29.38,NNW,338,2.0,2.2,96,0.33,,OVC240,0.70,VWS V14.01,2013-04-18 00:04:00,
2013-04-17 19:10:00,64.2,63.3,29.35,NW,315,1.1,1.6,97,0.54,,OVC240,0.91,VWS V14.01,2013-04-18 00:10:00,
2013-04-17 19:18:00,64.2,63.3,29.35,WNW,292,2.5,2.7,97,0.54,,OVC240,0.91,VWS V14.01,2013-04-18 00:18:00,
2013-04-17 19:20:00,64.2,63.3,29.35,WNW,292,2.5,2.7,97,0.54,,OVC240,0.91,VWS V14.01,2013-04-18 00:20:00,
2013-04-17 19:29:00,64.0,63.2,29.35,North,0,0.0,0.0,97,0.54,,OVC240,0.91,VWS V14.01,2013-04-18 00:29:00,
2013-04-17 19:30:00,64.0,63.2,29.35,North,0,0.0,0.0,97,0.54,,OVC240,0.91,VWS V14.01,2013-04-18 00:30:00,
2013-04-17 19:38:00,63.9,63.0,29.35,WSW,248,2.2,2.2,97,0.54,,OVC240,0.91,VWS V14.01,2013-04-18 00:38:00,
2013-04-17 19:40:00,63.9,63.0,29.35,WSW,248,2.2,2.2,97,0.54,,OVC240,0.91,VWS V14.01,2013-04-18 00:40:00,
2013-04-17 19:48:00,64.2,63.7,29.32,NW,315,3.1,3.1,98,0.54,,OVC240,0.91,VWS V14.01,2013-04-18 00:48:00,
2013-04-17 19:50:00,64.2,63.7,29.32,NW,315,3.1,3.1,98,0.54,,OVC240,0.91,VWS V14.01,2013-04-18 00:50:00,
2013-04-17 19:59:00,64.0,63.5,29.32,WNW,292,2.0,2.0,98,0.21,,OVC240,0.91,VWS V14.01,2013-04-18 00:59:00,
2013-04-17 20:00:00,64.0,63.5,29.32,WNW,292,2.0,2.0,98,0.21,,OVC240,0.91,VWS V14.01,2013-04-18 01:00:00,
2013-04-17 20:08:00,63.7,63.1,29.32,WNW,292,2.5,4.0,98,0.00,,OVC240,0.91,VWS V14.01,2013-04-18 01:08:00,
2013-04-17 20:10:00,63.7,63.1,29.32,WNW,292,2.5,4.0,98,0.00,,OVC240,0.91,VWS V14.01,2013-04-18 01:10:00,
2013-04-17 20:18:00,63.5,62.9,29.29,NW,315,2.9,2.9,98,0.00,,OVC240,0.91,VWS V14.01,2013-04-18 01:18:00,
2013-04-17 20:20:00,63.5,62.9,29.29,NW,315,2.9,2.9,98,0.00,,OVC240,0.91,VWS V14.01,2013-04-18 01:20:00,
2013-04-17 20:28:00,63.3,62.8,29.32,NW,315,1.6,2.5,98,0.00,,OVC240,0.91,VWS V14.01,2013-04-18 01:28:00,
2013-04-17 20:30:00,63.3,62.8,29.32,NW,315,1.6,2.5,98,0.00,,OVC240,0.91,VWS V14.01,2013-04-18 01:30:00,
2013-04-17 20:38:00,63.5,62.9,29.32,West,270,1.6,1.6,98,0.00,,OVC240,0.91,VWS V14.01,2013-04-18 01:38:00,
2013-04-17 20:40:00,63.5,62.9,29.32,West,270,1.6,1.6,98,0.00,,OVC240,0.91,VWS V14.01,2013-04-18 01:40:00,
2013-04-17 20:48:00,63.3,62.8,29.32,West,270,1.6,1.6,98,0.00,,OVC240,0.91,VWS V14.01,2013-04-18 01:48:00,
2013-04-17 20:50:00,63.3,62.8,29.32,West,270,1.6,1.6,98,0.00,,OVC240,0.91,VWS V14.01,2013-04-18 01:50:00,
2013-04-17 21:08:00,63.1,62.6,29.32,West,270,1.1,1.6,98,0.00,,OVC240,0.91,VWS V14.01,2013-04-18 02:08:00,
2013-04-17 21:10:00,63.1,62.6,29.32,West,270,1.1,1.6,98,0.00,,OVC240,0.91,VWS V14.01,2013-04-18 02:10:00,
2013-04-17 21:18:00,63.1,62.6,29.32,WNW,292,0.0,0.0,98,0.00,,OVC240,0.91,VWS V14.01,2013-04-18 02:18:00,
2013-04-17 21:20:00,63.1,62.6,29.32,WNW,292,0.0,0.0,98,0.00,,OVC240,0.91,VWS V14.01,2013-04-18 02:20:00,
2013-04-17 21:28:00,63.5,62.9,29.32,West,270,2.0,2.0,98,0.00,,OVC240,0.91,VWS V14.01,2013-04-18 02:28:00,
2013-04-17 21:30:00,63.5,62.9,29.32,West,270,2.0,2.0,98,0.00,,OVC240,0.91,VWS V14.01,2013-04-18 02:30:00,
2013-04-17 21:38:00,63.3,62.5,29.32,West,270,0.0,0.0,97,0.00,,OVC240,0.91,VWS V14.01,2013-04-18 02:38:00,
2013-04-17 21:40:00,63.3,62.5,29.32,West,270,0.0,0.0,97,0.00,,OVC240,0.91,VWS V14.01,2013-04-18 02:40:00,
2013-04-17 21:48:00,63.3,62.5,29.32,WNW,292,1.6,1.6,97,0.00,,OVC240,0.91,VWS V14.01,2013-04-18 02:48:00,
2013-04-17 21:50:00,63.3,62.5,29.32,WNW,292,1.6,1.6,97,0.00,,OVC240,0.91,VWS V14.01,2013-04-18 02:50:00,
2013-04-17 21:58:00,63.0,62.1,29.32,NW,315,3.4,3.6,97,0.00,,OVC240,0.91,VWS V14.01,2013-04-18 02:58:00,
2013-04-17 22:00:00,63.0,62.1,29.32,NW,315,3.4,3.6,97,0.00,,OVC240,0.91,VWS V14.01,2013-04-18 03:00:00,
2013-04-17 22:08:00,63.0,62.1,29.32,NW,315,2.5,2.5,97,0.00,,OVC240,0.91,VWS V14.01,2013-04-18 03:08:00,
2013-04-17 22:10:00,63.0,62.1,29.32,NW,315,2.5,2.5,97,0.00,,OVC240,0.91,VWS V14.01,2013-04-18 03:10:00,
2013-04-17 22:20:00,62.6,61.7,29.32,NW,315,2.7,2.7,97,0.00,,OVC240,0.91,VWS V14.01,2013-04-18 03:20:00,
2013-04-17 22:28:00,62.8,61.9,29.32,WNW,292,2.7,2.7,97,0.00,,OVC240,0.91,VWS V14.01,2013-04-18 03:28:00,
2013-04-17 22:30:00,62.8,61.9,29.32,WNW,292,2.7,2.7,97,0.00,,OVC240,0.91,VWS V14.01,2013-04-18 03:30:00,
2013-04-17 22:38:00,62.6,61.7,29.32,NNW,338,2.5,3.1,97,0.00,,OVC240,0.91,VWS V14.01,2013-04-18 03:38:00,
2013-04-17 22:40:00,62.6,61.7,29.32,NNW,338,2.5,3.1,97,0.00,,OVC240,0.91,VWS V14.01,2013-04-18 03:40:00,
2013-04-17 22:48:00,62.6,61.7,29.32,WSW,248,0.0,3.4,97,0.00,,OVC240,0.91,VWS V14.01,2013-04-18 03:48:00,
2013-04-17 22:50:00,62.6,61.7,29.32,WSW,248,0.0,3.4,97,0.00,,OVC240,0.91,VWS V14.01,2013-04-18 03:50:00,
2013-04-17 22:58:00,62.4,61.8,29.29,NW,315,1.3,1.3,98,0.00,,OVC240,0.91,VWS V14.01,2013-04-18 03:58:00,
2013-04-17 23:00:00,62.4,61.8,29.29,NW,315,1.3,1.3,98,0.00,,OVC240,0.91,VWS V14.01,2013-04-18 04:00:00,
2013-04-17 23:08:00,62.2,61.7,29.29,NW,315,0.0,0.0,98,0.00,,OVC240,0.91,VWS V14.01,2013-04-18 04:08:00,
2013-04-17 23:10:00,62.2,61.7,29.29,NW,315,0.0,0.0,98,0.00,,OVC240,0.91,VWS V14.01,2013-04-18 04:10:00,
2013-04-17 23:18:00,62.1,61.5,29.29,NW,315,2.5,2.5,98,0.00,,OVC240,0.91,VWS V14.01,2013-04-18 04:18:00,
2013-04-17 23:20:00,62.1,61.5,29.29,NW,315,2.5,2.5,98,0.00,,OVC240,0.91,VWS V14.01,2013-04-18 04:20:00,
2013-04-17 23:28:00,62.1,61.5,29.29,WNW,292,0.9,2.0,98,0.00,,OVC240,0.91,VWS V14.01,2013-04-18 04:28:00,
2013-04-17 23:30:00,62.1,61.5,29.29,WNW,292,0.9,2.0,98,0.00,,OVC240,0.91,VWS V14.01,2013-04-18 04:30:00,
2013-04-17 23:38:00,62.2,61.7,29.29,NW,315,2.5,2.5,98,0.00,,OVC240,0.91,VWS V14.01,2013-04-18 04:38:00,
2013-04-17 23:40:00,62.2,61.7,29.29,NW,315,2.5,2.5,98,0.00,,OVC240,0.91,VWS V14.01,2013-04-18 04:40:00,
2013-04-17 23:49:00,62.8,62.2,29.26,NW,315,2.7,2.7,98,0.00,,OVC240,0.91,VWS V14.01,2013-04-18 04:49:00,
2013-04-17 23:50:00,62.8,62.2,29.26,NW,315,2.7,2.7,98,0.00,,OVC240,0.91,VWS V14.01,2013-04-18 04:50:00,
2013-04-17 23:58:00,62.6,61.7,29.26,NW,315,2.7,2.7,97,0.00,,OVC240,0.00,VWS V14.01,2013-04-18 04:58:00,